Time,TemperatureF,DewpointF,PressureIn,WindDirection,WindDirectionDegrees,WindSpeedMPH,WindSpeedGustMPH,Humidity,HourlyPrecipIn,Conditions,Clouds,dailyrainin,SoftwareType,DateUTC
2013-03-21 00:01:00,58.8,6.3,25.54,NW,321,0.0,0.0,12,0.00,,---,0.00,VWS V14.01,2013-03-21 07:01:00,
2013-03-21 00:06:00,58.8,6.3,25.54,NW,308,0.0,0.0,12,0.00,,---,0.00,VWS V14.01,2013-03-21 07:06:00,
2013-03-21 00:11:00,58.3,5.9,25.54,NW,308,0.0,0.0,12,0.00,,---,0.00,VWS V14.01,2013-03-21 07:11:00,
2013-03-21 00:17:00,57.7,5.5,25.54,NW,308,0.0,0.0,12,0.00,,---,0.00,VWS V14.01,2013-03-21 07:17:00,
2013-03-21 00:22:00,55.8,3.9,25.54,South,175,5.4,6.3,12,0.00,,---,0.00,VWS V14.01,2013-03-21 07:22:00,
2013-03-21 00:27:00,56.1,4.2,25.51,South,182,5.8,5.8,12,0.00,,---,0.00,VWS V14.01,2013-03-21 07:27:00,
2013-03-21 00:32:00,55.9,4.1,25.51,South,187,5.8,5.8,12,0.00,,---,0.00,VWS V14.01,2013-03-21 07:32:00,
2013-03-21 00:37:00,54.9,5.0,25.51,South,188,0.0,0.0,13,0.00,,---,0.00,VWS V14.01,2013-03-21 07:37:00,
2013-03-21 00:42:00,55.8,3.9,25.51,South,184,6.3,6.3,12,0.00,,---,0.00,VWS V14.01,2013-03-21 07:42:00,
2013-03-21 00:47:00,55.6,3.8,25.51,South,186,0.0,3.1,12,0.00,,---,0.00,VWS V14.01,2013-03-21 07:47:00,
2013-03-21 00:52:00,55.6,3.8,25.51,South,185,2.2,3.6,12,0.00,,---,0.00,VWS V14.01,2013-03-21 07:52:00,
2013-03-21 00:57:00,54.9,5.0,25.51,South,185,0.0,0.0,13,0.00,,---,0.00,VWS V14.01,2013-03-21 07:57:00,
2013-03-21 01:02:00,54.5,4.7,25.51,South,185,2.2,2.2,13,0.00,,---,0.00,VWS V14.01,2013-03-21 08:02:00,
2013-03-21 01:07:00,53.8,4.1,25.51,South,185,0.0,0.0,13,0.00,,---,0.00,VWS V14.01,2013-03-21 08:07:00,
2013-03-21 01:12:00,54.1,4.4,25.51,SSW,198,0.0,0.0,13,0.00,,---,0.00,VWS V14.01,2013-03-21 08:12:00,
2013-03-21 01:17:00,54.0,4.2,25.51,WSW,246,2.7,3.1,13,0.00,,---,0.00,VWS V14.01,2013-03-21 08:17:00,
2013-03-21 01:22:00,54.3,4.5,25.51,WSW,246,0.0,0.0,13,0.00,,---,0.00,VWS V14.01,2013-03-21 08:22:00,
2013-03-21 01:27:00,53.2,3.7,25.51,WSW,246,0.0,0.0,13,0.00,,---,0.00,VWS V14.01,2013-03-21 08:27:00,
2013-03-21 01:32:00,52.9,3.4,25.51,WSW,246,0.0,0.0,13,0.00,,---,0.00,VWS V14.01,2013-03-21 08:32:00,
2013-03-21 01:37:00,52.9,3.4,25.51,SW,229,0.0,0.0,13,0.00,,---,0.00,VWS V14.01,2013-03-21 08:37:00,
2013-03-21 01:42:00,52.3,3.0,25.51,SW,229,0.0,0.0,13,0.00,,---,0.00,VWS V14.01,2013-03-21 08:42:00,
2013-03-21 01:47:00,51.8,2.5,25.51,SW,218,3.1,3.1,13,0.00,,---,0.00,VWS V14.01,2013-03-21 08:47:00,
2013-03-21 01:52:00,53.2,3.7,25.51,South,189,2.7,4.0,13,0.00,,---,0.00,VWS V14.01,2013-03-21 08:52:00,
2013-03-21 01:57:00,53.6,4.0,25.51,SSE,164,4.0,4.0,13,0.00,,---,0.00,VWS V14.01,2013-03-21 08:57:00,
2013-03-21 02:02:00,53.1,3.5,25.51,SSE,151,0.0,2.2,13,0.00,,---,0.00,VWS V14.01,2013-03-21 09:02:00,
2013-03-21 02:07:00,51.8,2.5,25.51,SSE,151,0.0,0.0,13,0.00,,---,0.00,VWS V14.01,2013-03-21 09:07:00,
2013-03-21 02:12:00,52.2,2.8,25.51,SSE,153,2.7,3.1,13,0.00,,---,0.00,VWS V14.01,2013-03-21 09:12:00,
2013-03-21 02:17:00,50.7,3.3,25.51,SSE,156,0.0,0.0,14,0.00,,---,0.00,VWS V14.01,2013-03-21 09:17:00,
2013-03-21 02:22:00,50.7,3.3,25.51,WSW,240,4.0,4.0,14,0.00,,---,0.00,VWS V14.01,2013-03-21 09:22:00,
2013-03-21 02:27:00,50.4,3.0,25.51,South,184,3.1,3.1,14,0.00,,---,0.00,VWS V14.01,2013-03-21 09:27:00,
2013-03-21 02:32:00,51.3,3.7,25.51,South,185,4.0,4.0,14,0.00,,---,0.00,VWS V14.01,2013-03-21 09:32:00,
2013-03-21 02:38:00,51.1,3.6,25.51,South,186,0.0,2.2,14,0.00,,---,0.00,VWS V14.01,2013-03-21 09:38:00,
2013-03-21 02:43:00,50.0,2.7,25.48,South,186,0.0,0.0,14,0.00,,---,0.00,VWS V14.01,2013-03-21 09:43:00,
2013-03-21 02:48:00,51.1,3.6,25.48,South,184,3.1,4.0,14,0.00,,---,0.00,VWS V14.01,2013-03-21 09:48:00,
2013-03-21 02:53:00,51.4,3.8,25.48,South,185,4.0,4.0,14,0.00,,---,0.00,VWS V14.01,2013-03-21 09:53:00,
2013-03-21 02:58:00,51.3,3.7,25.48,SSW,193,0.0,0.0,14,0.00,,---,0.00,VWS V14.01,2013-03-21 09:58:00,
2013-03-21 03:03:00,50.2,2.8,25.48,South,177,0.0,0.0,14,0.00,,---,0.00,VWS V14.01,2013-03-21 10:03:00,
2013-03-21 03:08:00,50.2,2.8,25.48,South,180,0.0,0.0,14,0.00,,---,0.00,VWS V14.01,2013-03-21 10:08:00,
2013-03-21 03:13:00,49.6,2.4,25.48,South,180,0.0,0.0,14,0.00,,---,0.00,VWS V14.01,2013-03-21 10:13:00,
2013-03-21 03:18:00,48.9,1.8,25.48,South,181,0.0,0.0,14,0.00,,---,0.00,VWS V14.01,2013-03-21 10:18:00,
2013-03-21 03:23:00,49.8,2.5,25.48,SSE,150,3.6,4.0,14,0.00,,---,0.00,VWS V14.01,2013-03-21 10:23:00,
2013-03-21 03:28:00,49.8,2.5,25.48,SSE,151,0.0,0.0,14,0.00,,---,0.00,VWS V14.01,2013-03-21 10:28:00,
2013-03-21 03:33:00,49.8,2.5,25.48,SE,133,4.0,4.0,14,0.00,,---,0.00,VWS V14.01,2013-03-21 10:33:00,
2013-03-21 03:38:00,49.3,2.1,25.48,SE,135,2.7,2.7,14,0.00,,---,0.00,VWS V14.01,2013-03-21 10:38:00,
2013-03-21 03:43:00,48.7,1.7,25.48,SSE,159,4.0,4.0,14,0.00,,---,0.00,VWS V14.01,2013-03-21 10:43:00,
2013-03-21 03:48:00,48.6,1.5,25.48,SSE,154,4.0,4.5,14,0.00,,---,0.00,VWS V14.01,2013-03-21 10:48:00,
2013-03-21 03:53:00,48.0,1.1,25.45,SSE,152,2.7,2.7,14,0.00,,---,0.00,VWS V14.01,2013-03-21 10:53:00,
2013-03-21 03:58:00,47.8,1.0,25.45,SSE,156,2.7,2.7,14,0.00,,---,0.00,VWS V14.01,2013-03-21 10:58:00,
2013-03-21 04:03:00,48.0,1.1,25.45,South,176,3.6,4.0,14,0.00,,---,0.00,VWS V14.01,2013-03-21 11:03:00,
2013-03-21 04:08:00,48.2,1.2,25.45,South,185,2.7,3.1,14,0.00,,---,0.00,VWS V14.01,2013-03-21 11:08:00,
2013-03-21 04:13:00,48.0,1.1,25.45,South,190,0.0,2.7,14,0.00,,---,0.00,VWS V14.01,2013-03-21 11:13:00,
2013-03-21 04:18:00,47.8,1.0,25.45,South,187,5.8,5.8,14,0.00,,---,0.00,VWS V14.01,2013-03-21 11:18:00,
2013-03-21 04:23:00,48.6,1.5,25.48,South,190,2.7,5.8,14,0.00,,---,0.00,VWS V14.01,2013-03-21 11:23:00,
2013-03-21 04:28:00,48.7,1.7,25.48,SE,146,4.0,4.0,14,0.00,,---,0.00,VWS V14.01,2013-03-21 11:28:00,
2013-03-21 04:33:00,48.9,1.8,25.48,SSW,204,3.1,4.9,14,0.00,,---,0.00,VWS V14.01,2013-03-21 11:33:00,
2013-03-21 04:38:00,48.7,1.7,25.45,WSW,246,2.7,3.6,14,0.00,,---,0.00,VWS V14.01,2013-03-21 11:38:00,
2013-03-21 04:43:00,48.4,1.4,25.45,North,0,2.7,2.7,14,0.00,,---,0.00,VWS V14.01,2013-03-21 11:43:00,
2013-03-21 04:48:00,48.0,1.1,25.45,NNE,19,4.9,5.8,14,0.00,,---,0.00,VWS V14.01,2013-03-21 11:48:00,
2013-03-21 04:53:00,47.5,0.7,25.48,WSW,243,0.0,0.0,14,0.00,,---,0.00,VWS V14.01,2013-03-21 11:53:00,
2013-03-21 04:59:00,48.7,1.7,25.48,NNE,12,2.7,2.7,14,0.00,,---,0.00,VWS V14.01,2013-03-21 11:59:00,
2013-03-21 05:04:00,47.5,0.7,25.48,NNW,344,5.8,5.8,14,0.00,,---,0.00,VWS V14.01,2013-03-21 12:04:00,
2013-03-21 05:09:00,47.7,0.8,25.48,NNE,27,3.1,3.6,14,0.00,,---,0.00,VWS V14.01,2013-03-21 12:09:00,
2013-03-21 05:14:00,47.7,0.8,25.48,WSW,251,5.8,7.6,14,0.00,,---,0.00,VWS V14.01,2013-03-21 12:14:00,
2013-03-21 05:19:00,47.7,0.8,25.48,NNE,21,2.7,2.7,14,0.00,,---,0.00,VWS V14.01,2013-03-21 12:19:00,
2013-03-21 05:24:00,46.9,0.2,25.48,WSW,255,5.4,5.4,14,0.00,,---,0.00,VWS V14.01,2013-03-21 12:24:00,
2013-03-21 05:29:00,48.0,1.1,25.48,WSW,256,0.0,0.0,14,0.00,,---,0.00,VWS V14.01,2013-03-21 12:29:00,
2013-03-21 05:34:00,48.9,1.8,25.48,WSW,242,2.2,6.3,14,0.00,,---,0.00,VWS V14.01,2013-03-21 12:34:00,
2013-03-21 05:39:00,48.4,1.4,25.48,WSW,242,0.0,0.0,14,0.00,,---,0.00,VWS V14.01,2013-03-21 12:39:00,
2013-03-21 05:44:00,48.9,1.8,25.48,WSW,255,0.0,0.0,14,0.00,,---,0.00,VWS V14.01,2013-03-21 12:44:00,
2013-03-21 05:49:00,48.6,1.5,25.48,WSW,255,0.0,0.0,14,0.00,,---,0.00,VWS V14.01,2013-03-21 12:49:00,
2013-03-21 05:54:00,48.4,1.4,25.48,WSW,252,0.0,2.2,14,0.00,,---,0.00,VWS V14.01,2013-03-21 12:54:00,
2013-03-21 05:59:00,48.0,1.1,25.48,WSW,251,3.6,4.0,14,0.00,,---,0.00,VWS V14.01,2013-03-21 12:59:00,
2013-03-21 06:04:00,48.2,1.2,25.48,SSW,209,2.2,2.7,14,0.00,,---,0.00,VWS V14.01,2013-03-21 13:04:00,
2013-03-21 06:09:00,47.8,1.0,25.48,SSW,209,0.0,0.0,14,0.00,,---,0.00,VWS V14.01,2013-03-21 13:09:00,
2013-03-21 06:14:00,49.8,2.5,25.48,SSE,163,5.4,5.8,14,0.00,,---,0.00,VWS V14.01,2013-03-21 13:14:00,
2013-03-21 06:19:00,49.3,2.1,25.48,SSE,166,6.3,6.7,14,0.00,,---,0.00,VWS V14.01,2013-03-21 13:19:00,
2013-03-21 06:24:00,48.9,1.8,25.48,South,176,5.4,5.8,14,0.00,,---,0.00,VWS V14.01,2013-03-21 13:24:00,
2013-03-21 06:29:00,48.9,1.8,25.48,WNW,303,2.7,4.0,14,0.00,,---,0.00,VWS V14.01,2013-03-21 13:29:00,
2013-03-21 06:34:00,47.7,0.8,25.48,East,90,2.7,2.7,14,0.00,,---,0.00,VWS V14.01,2013-03-21 13:34:00,
2013-03-21 06:39:00,46.9,0.2,25.48,SSE,159,3.6,3.6,14,0.00,,---,0.00,VWS V14.01,2013-03-21 13:39:00,
2013-03-21 06:44:00,46.9,0.2,25.48,South,171,0.0,0.0,14,0.00,,---,0.00,VWS V14.01,2013-03-21 13:44:00,
2013-03-21 06:49:00,47.7,0.8,25.48,South,171,0.0,0.0,14,0.00,,---,0.00,VWS V14.01,2013-03-21 13:49:00,
2013-03-21 06:54:00,48.6,1.5,25.48,South,171,0.0,0.0,14,0.00,,---,0.00,VWS V14.01,2013-03-21 13:54:00,
2013-03-21 06:59:00,49.5,2.3,25.48,South,171,0.0,0.0,14,0.00,,---,0.00,VWS V14.01,2013-03-21 13:59:00,
2013-03-21 07:04:00,49.6,2.4,25.48,South,173,4.0,4.0,14,0.00,,---,0.00,VWS V14.01,2013-03-21 14:04:00,
2013-03-21 07:09:00,50.0,2.7,25.48,South,179,0.0,0.0,14,0.00,,---,0.00,VWS V14.01,2013-03-21 14:09:00,
2013-03-21 07:14:00,50.4,3.0,25.48,South,179,0.0,0.0,14,0.00,,---,0.00,VWS V14.01,2013-03-21 14:14:00,
2013-03-21 07:20:00,50.5,3.1,25.48,South,179,0.0,0.0,14,0.00,,---,0.00,VWS V14.01,2013-03-21 14:20:00,
2013-03-21 07:25:00,50.9,3.4,25.48,SE,125,6.3,6.3,14,0.00,,---,0.00,VWS V14.01,2013-03-21 14:25:00,
2013-03-21 07:30:00,50.4,3.0,25.48,ENE,73,3.6,3.6,14,0.00,,---,0.00,VWS V14.01,2013-03-21 14:30:00,
2013-03-21 07:35:00,50.0,2.7,25.48,East,87,2.7,3.1,14,0.00,,---,0.00,VWS V14.01,2013-03-21 14:35:00,
2013-03-21 07:40:00,50.9,3.4,25.48,SE,134,0.0,0.0,14,0.00,,---,0.00,VWS V14.01,2013-03-21 14:40:00,
2013-03-21 07:45:00,52.2,2.8,25.48,SE,131,0.0,0.0,13,0.00,,---,0.00,VWS V14.01,2013-03-21 14:45:00,
2013-03-21 07:50:00,53.6,4.0,25.48,ESE,116,3.1,3.1,13,0.00,,---,0.00,VWS V14.01,2013-03-21 14:50:00,
2013-03-21 07:55:00,55.2,5.2,25.48,ESE,116,0.0,0.0,13,0.00,,---,0.00,VWS V14.01,2013-03-21 14:55:00,
2013-03-21 08:00:00,57.0,4.9,25.48,SSE,161,3.1,3.1,12,0.00,,---,0.00,VWS V14.01,2013-03-21 15:00:00,
2013-03-21 08:05:00,57.7,5.5,25.48,South,169,2.7,2.7,12,0.00,,---,0.00,VWS V14.01,2013-03-21 15:05:00,
2013-03-21 08:10:00,58.5,6.1,25.48,SSE,167,3.6,3.6,12,0.00,,---,0.00,VWS V14.01,2013-03-21 15:10:00,
2013-03-21 08:15:00,59.4,6.8,25.48,SSE,167,0.0,0.0,12,0.00,,---,0.00,VWS V14.01,2013-03-21 15:15:00,
2013-03-21 08:20:00,61.0,6.1,25.48,SSE,157,3.1,3.1,11,0.00,,---,0.00,VWS V14.01,2013-03-21 15:20:00,
2013-03-21 08:25:00,61.2,6.3,25.48,SE,143,0.0,0.0,11,0.00,,---,0.00,VWS V14.01,2013-03-21 15:25:00,
2013-03-21 08:30:00,61.0,6.1,25.48,SE,127,0.0,2.2,11,0.00,,---,0.00,VWS V14.01,2013-03-21 15:30:00,
2013-03-21 08:35:00,61.7,6.7,25.48,SE,145,0.0,2.2,11,0.00,,---,0.00,VWS V14.01,2013-03-21 15:35:00,
2013-03-21 08:40:00,61.9,6.8,25.48,SE,145,2.7,4.0,11,0.00,,---,0.00,VWS V14.01,2013-03-21 15:40:00,
2013-03-21 08:45:00,62.2,7.1,25.48,South,177,3.1,3.1,11,0.00,,---,0.00,VWS V14.01,2013-03-21 15:45:00,
2013-03-21 08:50:00,63.0,7.7,25.48,South,177,3.1,4.0,11,0.00,,---,0.00,VWS V14.01,2013-03-21 15:50:00,
2013-03-21 08:55:00,63.0,7.7,25.48,South,179,2.7,4.0,11,0.00,,---,0.00,VWS V14.01,2013-03-21 15:55:00,
2013-03-21 09:00:00,63.0,7.7,25.48,SSE,168,4.0,4.0,11,0.00,,---,0.00,VWS V14.01,2013-03-21 16:00:00,
2013-03-21 09:05:00,63.1,7.8,25.48,SSE,167,4.9,4.9,11,0.00,,---,0.00,VWS V14.01,2013-03-21 16:05:00,
2013-03-21 09:10:00,65.3,7.4,25.51,SSE,153,2.7,4.0,10,0.00,,---,0.00,VWS V14.01,2013-03-21 16:10:00,
2013-03-21 09:15:00,65.5,7.5,25.51,South,182,2.2,3.1,10,0.00,,---,0.00,VWS V14.01,2013-03-21 16:15:00,
2013-03-21 09:20:00,65.8,7.8,25.51,SE,127,2.2,2.7,10,0.00,,---,0.00,VWS V14.01,2013-03-21 16:20:00,
2013-03-21 09:25:00,66.9,8.6,25.48,SSE,160,3.6,3.6,10,0.00,,---,0.00,VWS V14.01,2013-03-21 16:25:00,
2013-03-21 09:30:00,67.8,9.3,25.48,South,174,2.7,5.8,10,0.00,,---,0.00,VWS V14.01,2013-03-21 16:30:00,
2013-03-21 09:35:00,68.4,9.7,25.48,South,181,0.0,0.0,10,0.00,,---,0.00,VWS V14.01,2013-03-21 16:35:00,
2013-03-21 09:40:00,68.4,9.7,25.48,ENE,71,0.0,0.0,10,0.00,,---,0.00,VWS V14.01,2013-03-21 16:40:00,
2013-03-21 09:45:00,69.8,8.5,25.48,SSW,192,2.2,2.2,9,0.00,,---,0.00,VWS V14.01,2013-03-21 16:45:00,
2013-03-21 09:50:00,70.3,8.9,25.48,SSE,150,0.0,2.7,9,0.00,,---,0.00,VWS V14.01,2013-03-21 16:50:00,
2013-03-21 09:55:00,71.2,9.6,25.48,NW,322,0.0,0.0,9,0.00,,---,0.00,VWS V14.01,2013-03-21 16:55:00,
2013-03-21 10:00:00,72.1,10.2,25.48,SW,216,2.7,2.7,9,0.00,,---,0.00,VWS V14.01,2013-03-21 17:00:00,
2013-03-21 10:05:00,71.4,9.7,25.48,SSE,165,3.6,5.4,9,0.00,,---,0.00,VWS V14.01,2013-03-21 17:05:00,
2013-03-21 10:11:00,71.8,10.0,25.48,SSE,160,2.7,3.1,9,0.00,,---,0.00,VWS V14.01,2013-03-21 17:11:00,
2013-03-21 10:16:00,71.4,9.7,25.48,SSE,151,2.2,2.7,9,0.00,,---,0.00,VWS V14.01,2013-03-21 17:16:00,
2013-03-21 10:21:00,72.3,10.4,25.48,South,181,0.0,0.0,9,0.00,,---,0.00,VWS V14.01,2013-03-21 17:21:00,
2013-03-21 10:26:00,73.6,8.7,25.48,SSE,148,3.6,3.6,8,0.00,,---,0.00,VWS V14.01,2013-03-21 17:26:00,
2013-03-21 10:31:00,73.4,8.6,25.48,South,185,4.9,4.9,8,0.00,,---,0.00,VWS V14.01,2013-03-21 17:31:00,
2013-03-21 10:36:00,74.7,9.5,25.48,SSW,204,0.0,3.1,8,0.00,,---,0.00,VWS V14.01,2013-03-21 17:36:00,
2013-03-21 10:41:00,76.6,11.0,25.48,WNW,285,0.0,2.7,8,0.00,,---,0.00,VWS V14.01,2013-03-21 17:41:00,
2013-03-21 10:46:00,76.3,10.7,25.48,SE,132,4.0,4.0,8,0.00,,---,0.00,VWS V14.01,2013-03-21 17:46:00,
2013-03-21 10:51:00,75.9,10.4,25.48,South,169,2.7,4.9,8,0.00,,---,0.00,VWS V14.01,2013-03-21 17:51:00,
2013-03-21 10:56:00,77.9,11.9,25.48,ESE,123,3.6,4.0,8,0.00,,---,0.00,VWS V14.01,2013-03-21 17:56:00,
2013-03-21 11:01:00,76.3,10.7,25.48,ESE,115,3.1,4.0,8,0.00,,---,0.00,VWS V14.01,2013-03-21 18:01:00,
2013-03-21 11:06:00,79.3,10.0,25.48,ENE,75,0.0,0.0,7,0.00,,---,0.00,VWS V14.01,2013-03-21 18:06:00,
2013-03-21 11:12:00,78.4,12.3,25.48,WSW,246,8.3,8.7,8,0.00,,---,0.00,VWS V14.01,2013-03-21 18:12:00,
2013-03-21 11:17:00,77.9,11.9,25.48,NNE,14,0.0,3.1,8,0.00,,---,0.00,VWS V14.01,2013-03-21 18:17:00,
2013-03-21 11:22:00,80.2,10.6,25.48,WSW,249,5.8,5.8,7,0.00,,---,0.00,VWS V14.01,2013-03-21 18:22:00,
2013-03-21 11:27:00,77.4,11.5,25.48,WSW,256,4.0,4.0,8,0.00,,---,0.00,VWS V14.01,2013-03-21 18:27:00,
2013-03-21 11:32:00,76.8,11.1,25.48,North,0,2.7,4.0,8,0.00,,---,0.00,VWS V14.01,2013-03-21 18:32:00,
2013-03-21 11:37:00,77.9,11.9,25.48,East,86,2.2,3.6,8,0.00,,---,0.00,VWS V14.01,2013-03-21 18:37:00,
2013-03-21 11:42:00,77.2,11.4,25.48,ESE,118,4.0,5.8,8,0.00,,---,0.00,VWS V14.01,2013-03-21 18:42:00,
2013-03-21 11:47:00,76.5,10.8,25.48,ENE,68,3.1,3.1,8,0.00,,---,0.00,VWS V14.01,2013-03-21 18:47:00,
2013-03-21 11:52:00,76.5,10.8,25.48,ESE,114,2.7,5.4,8,0.00,,---,0.00,VWS V14.01,2013-03-21 18:52:00,
2013-03-21 11:57:00,79.0,9.7,25.48,South,185,5.4,5.4,7,0.00,,---,0.00,VWS V14.01,2013-03-21 18:57:00,
2013-03-21 12:02:00,77.5,11.6,25.48,South,179,5.8,5.8,8,0.00,,---,0.00,VWS V14.01,2013-03-21 19:02:00,
2013-03-21 12:07:00,78.6,12.4,25.48,East,97,5.8,5.8,8,0.00,,---,0.00,VWS V14.01,2013-03-21 19:07:00,
2013-03-21 12:12:00,79.2,9.8,25.45,South,182,6.3,6.3,7,0.00,,---,0.00,VWS V14.01,2013-03-21 19:12:00,
2013-03-21 12:17:00,78.8,9.6,25.45,SSE,158,8.3,11.0,7,0.00,,---,0.00,VWS V14.01,2013-03-21 19:17:00,
2013-03-21 12:22:00,79.9,10.4,25.45,SSW,194,3.1,8.3,7,0.00,,---,0.00,VWS V14.01,2013-03-21 19:22:00,
2013-03-21 12:27:00,78.3,12.2,25.45,SSE,166,8.7,10.1,8,0.00,,---,0.00,VWS V14.01,2013-03-21 19:27:00,
2013-03-21 12:32:00,80.1,10.5,25.45,SE,137,5.4,5.4,7,0.00,,---,0.00,VWS V14.01,2013-03-21 19:32:00,
2013-03-21 12:37:00,79.7,10.2,25.45,ESE,102,8.3,8.3,7,0.00,,---,0.00,VWS V14.01,2013-03-21 19:37:00,
2013-03-21 12:42:00,81.1,11.3,25.45,SSE,154,3.6,3.6,7,0.00,,---,0.00,VWS V14.01,2013-03-21 19:42:00,
2013-03-21 12:47:00,81.1,11.3,25.45,West,274,2.7,3.6,7,0.00,,---,0.00,VWS V14.01,2013-03-21 19:47:00,
2013-03-21 12:52:00,79.9,10.4,25.45,West,272,3.1,4.9,7,0.00,,---,0.00,VWS V14.01,2013-03-21 19:52:00,
2013-03-21 12:57:00,80.4,10.8,25.45,West,271,5.8,5.8,7,0.00,,---,0.00,VWS V14.01,2013-03-21 19:57:00,
2013-03-21 13:03:00,80.4,10.8,25.45,West,266,3.1,5.4,7,0.00,,---,0.00,VWS V14.01,2013-03-21 20:03:00,
2013-03-21 13:08:00,80.8,11.0,25.43,WNW,284,4.0,7.2,7,0.00,,---,0.00,VWS V14.01,2013-03-21 20:08:00,
2013-03-21 13:13:00,81.3,11.4,25.43,WNW,283,4.0,8.7,7,0.00,,---,0.00,VWS V14.01,2013-03-21 20:13:00,
2013-03-21 13:18:00,79.7,10.2,25.43,West,278,12.3,14.1,7,0.00,,---,0.00,VWS V14.01,2013-03-21 20:18:00,
2013-03-21 13:23:00,82.2,12.1,25.43,WSW,257,3.1,3.1,7,0.00,,---,0.00,VWS V14.01,2013-03-21 20:23:00,
2013-03-21 13:28:00,81.7,11.7,25.43,West,271,5.4,13.2,7,0.00,,---,0.00,VWS V14.01,2013-03-21 20:28:00,
2013-03-21 13:33:00,80.8,11.0,25.43,WNW,291,7.6,7.6,7,0.00,,---,0.00,VWS V14.01,2013-03-21 20:33:00,
2013-03-21 13:38:00,80.4,10.8,25.43,WSW,253,14.1,14.1,7,0.00,,---,0.00,VWS V14.01,2013-03-21 20:38:00,
2013-03-21 13:43:00,78.3,12.2,25.43,WSW,240,5.8,14.1,8,0.00,,---,0.00,VWS V14.01,2013-03-21 20:43:00,
2013-03-21 13:48:00,77.7,11.8,25.43,West,265,3.6,12.8,8,0.00,,---,0.00,VWS V14.01,2013-03-21 20:48:00,
2013-03-21 13:53:00,79.0,9.7,25.43,WSW,253,3.1,5.4,7,0.00,,---,0.00,VWS V14.01,2013-03-21 20:53:00,
2013-03-21 13:58:00,78.6,12.4,25.43,South,188,4.0,7.6,8,0.00,,---,0.00,VWS V14.01,2013-03-21 20:58:00,
2013-03-21 14:03:00,78.1,12.0,25.43,WSW,253,6.7,7.6,8,0.00,,---,0.00,VWS V14.01,2013-03-21 21:03:00,
2013-03-21 14:08:00,78.6,12.4,25.43,WSW,255,11.0,12.8,8,0.00,,---,0.00,VWS V14.01,2013-03-21 21:08:00,
2013-03-21 14:13:00,80.2,10.6,25.43,WNW,294,4.0,4.0,7,0.00,,---,0.00,VWS V14.01,2013-03-21 21:13:00,
2013-03-21 14:18:00,79.0,9.7,25.43,SW,225,3.1,6.3,7,0.00,,---,0.00,VWS V14.01,2013-03-21 21:18:00,
2013-03-21 14:23:00,78.4,12.3,25.43,West,259,11.0,11.0,8,0.00,,---,0.00,VWS V14.01,2013-03-21 21:23:00,
2013-03-21 14:28:00,78.8,9.6,25.43,West,279,5.4,5.4,7,0.00,,---,0.00,VWS V14.01,2013-03-21 21:28:00,
2013-03-21 14:33:00,78.3,12.2,25.43,WSW,251,4.0,5.8,8,0.00,,---,0.00,VWS V14.01,2013-03-21 21:33:00,
2013-03-21 14:38:00,77.9,11.9,25.43,WNW,290,7.6,9.6,8,0.00,,---,0.00,VWS V14.01,2013-03-21 21:38:00,
2013-03-21 14:43:00,77.4,11.5,25.43,WSW,244,3.6,5.8,8,0.00,,---,0.00,VWS V14.01,2013-03-21 21:43:00,
2013-03-21 14:48:00,79.9,10.4,25.43,West,262,8.1,8.1,7,0.00,,---,0.00,VWS V14.01,2013-03-21 21:48:00,
2013-03-21 14:53:00,79.2,18.0,25.43,West,264,12.8,19.7,10,0.00,,---,0.00,VWS V14.01,2013-03-21 21:53:00,
2013-03-21 14:58:00,79.2,9.8,25.43,WSW,251,4.0,7.2,7,0.00,,---,0.00,VWS V14.01,2013-03-21 21:58:00,
2013-03-21 15:03:00,77.5,11.6,25.43,WNW,288,3.6,7.6,8,0.00,,---,0.00,VWS V14.01,2013-03-21 22:03:00,
2013-03-21 15:08:00,77.0,11.2,25.40,West,278,4.9,6.3,8,0.00,,---,0.00,VWS V14.01,2013-03-21 22:08:00,
2013-03-21 15:13:00,76.3,10.7,25.40,WNW,290,7.6,10.5,8,0.00,,---,0.00,VWS V14.01,2013-03-21 22:13:00,
2013-03-21 15:18:00,75.7,10.3,25.40,SW,235,7.6,16.8,8,0.00,,---,0.00,VWS V14.01,2013-03-21 22:18:00,
2013-03-21 15:23:00,75.4,10.0,25.43,WSW,239,5.4,8.7,8,0.00,,---,0.00,VWS V14.01,2013-03-21 22:23:00,
2013-03-21 15:28:00,75.9,10.4,25.43,SW,229,3.6,5.4,8,0.00,,---,0.00,VWS V14.01,2013-03-21 22:28:00,
2013-03-21 15:33:00,76.1,10.6,25.43,West,267,8.1,9.6,8,0.00,,---,0.00,VWS V14.01,2013-03-21 22:33:00,
2013-03-21 15:38:00,76.1,10.6,25.40,West,276,12.3,12.3,8,0.00,,---,0.00,VWS V14.01,2013-03-21 22:38:00,
2013-03-21 15:43:00,76.5,10.8,25.40,WNW,285,10.1,10.1,8,0.00,,---,0.00,VWS V14.01,2013-03-21 22:43:00,
2013-03-21 15:48:00,75.4,10.0,25.40,SW,234,11.0,12.8,8,0.00,,---,0.00,VWS V14.01,2013-03-21 22:48:00,
2013-03-21 15:54:00,75.4,10.0,25.40,SW,231,5.8,5.8,8,0.00,,---,0.00,VWS V14.01,2013-03-21 22:54:00,
2013-03-21 15:59:00,74.7,9.5,25.40,SW,226,2.7,9.6,8,0.00,,---,0.00,VWS V14.01,2013-03-21 22:59:00,
2013-03-21 16:04:00,74.8,9.6,25.40,West,267,13.2,13.2,8,0.00,,---,0.00,VWS V14.01,2013-03-21 23:04:00,
2013-03-21 16:09:00,73.8,8.8,25.43,West,264,5.8,8.1,8,0.00,,---,0.00,VWS V14.01,2013-03-21 23:09:00,
2013-03-21 16:14:00,73.8,8.8,25.43,WSW,239,8.1,8.1,8,0.00,,---,0.00,VWS V14.01,2013-03-21 23:14:00,
2013-03-21 16:19:00,73.4,8.6,25.43,West,272,4.0,9.6,8,0.00,,---,0.00,VWS V14.01,2013-03-21 23:19:00,
2013-03-21 16:24:00,73.0,10.9,25.43,WNW,286,4.9,5.8,9,0.00,,---,0.00,VWS V14.01,2013-03-21 23:24:00,
2013-03-21 16:29:00,72.9,10.8,25.43,WSW,247,2.7,5.8,9,0.00,,---,0.00,VWS V14.01,2013-03-21 23:29:00,
2013-03-21 16:34:00,72.9,10.8,25.43,WSW,246,3.6,15.0,9,0.00,,---,0.00,VWS V14.01,2013-03-21 23:34:00,
2013-03-21 16:39:00,72.9,10.8,25.43,WNW,289,7.6,7.6,9,0.00,,---,0.00,VWS V14.01,2013-03-21 23:39:00,
2013-03-21 16:44:00,72.1,10.2,25.43,SW,230,7.6,10.5,9,0.00,,---,0.00,VWS V14.01,2013-03-21 23:44:00,
2013-03-21 16:49:00,72.0,10.1,25.43,West,276,6.3,10.1,9,0.00,,---,0.00,VWS V14.01,2013-03-21 23:49:00,
2013-03-21 16:54:00,72.0,10.1,25.43,WSW,244,13.2,13.2,9,0.00,,---,0.00,VWS V14.01,2013-03-21 23:54:00,
2013-03-21 16:59:00,71.6,9.8,25.43,West,265,7.2,8.1,9,0.00,,---,0.00,VWS V14.01,2013-03-21 23:59:00,
2013-03-21 17:04:00,71.4,9.7,25.43,West,267,10.1,10.1,9,0.00,,---,0.00,VWS V14.01,2013-03-22 00:04:00,
2013-03-21 17:09:00,71.2,9.6,25.43,West,265,10.1,10.1,9,0.00,,---,0.00,VWS V14.01,2013-03-22 00:09:00,
2013-03-21 17:14:00,71.2,9.6,25.43,West,270,7.6,8.3,9,0.00,,---,0.00,VWS V14.01,2013-03-22 00:14:00,
2013-03-21 17:19:00,71.1,9.4,25.43,WSW,246,10.5,10.5,9,0.00,,---,0.00,VWS V14.01,2013-03-22 00:19:00,
2013-03-21 17:24:00,70.9,9.3,25.40,West,265,3.6,3.6,9,0.00,,---,0.00,VWS V14.01,2013-03-22 00:24:00,
2013-03-21 17:29:00,70.7,9.1,25.40,West,270,5.8,6.3,9,0.00,,---,0.00,VWS V14.01,2013-03-22 00:29:00,
2013-03-21 17:34:00,70.3,8.9,25.40,West,270,3.6,4.0,9,0.00,,---,0.00,VWS V14.01,2013-03-22 00:34:00,
2013-03-21 17:39:00,70.2,8.7,25.43,West,280,0.0,2.7,9,0.00,,---,0.00,VWS V14.01,2013-03-22 00:39:00,
2013-03-21 17:44:00,70.0,8.6,25.43,West,270,5.4,5.4,9,0.00,,---,0.00,VWS V14.01,2013-03-22 00:44:00,
2013-03-21 17:49:00,69.6,10.7,25.43,West,281,0.0,0.0,10,0.00,,---,0.00,VWS V14.01,2013-03-22 00:49:00,
2013-03-21 17:54:00,69.4,10.5,25.43,WNW,299,0.0,2.7,10,0.00,,---,0.00,VWS V14.01,2013-03-22 00:54:00,
2013-03-21 17:59:00,69.3,10.4,25.43,WNW,298,0.0,0.0,10,0.00,,---,0.00,VWS V14.01,2013-03-22 00:59:00,
2013-03-21 18:04:00,69.3,10.4,25.43,NW,321,4.9,5.4,10,0.00,,---,0.00,VWS V14.01,2013-03-22 01:04:00,
2013-03-21 18:09:00,69.1,10.3,25.43,NW,322,4.0,4.0,10,0.00,,---,0.00,VWS V14.01,2013-03-22 01:09:00,
2013-03-21 18:14:00,68.7,10.0,25.43,NW,311,0.0,2.2,10,0.00,,---,0.00,VWS V14.01,2013-03-22 01:14:00,
2013-03-21 18:19:00,68.4,9.7,25.43,NNW,330,2.7,3.6,10,0.00,,---,0.00,VWS V14.01,2013-03-22 01:19:00,
2013-03-21 18:24:00,67.8,9.3,25.43,NNW,335,2.7,3.6,10,0.00,,---,0.00,VWS V14.01,2013-03-22 01:24:00,
2013-03-21 18:29:00,67.5,9.0,25.43,NW,318,3.6,3.6,10,0.00,,---,0.00,VWS V14.01,2013-03-22 01:29:00,
2013-03-21 18:34:00,67.1,8.7,25.43,NW,307,4.0,4.0,10,0.00,,---,0.00,VWS V14.01,2013-03-22 01:34:00,
2013-03-21 18:39:00,66.6,8.3,25.43,NW,305,2.7,3.1,10,0.00,,---,0.00,VWS V14.01,2013-03-22 01:39:00,
2013-03-21 18:44:00,66.4,8.2,25.43,NW,305,4.0,4.0,10,0.00,,---,0.00,VWS V14.01,2013-03-22 01:44:00,
2013-03-21 18:49:00,65.8,7.8,25.43,NW,305,2.7,2.7,10,0.00,,---,0.00,VWS V14.01,2013-03-22 01:49:00,
2013-03-21 18:54:00,65.3,7.4,25.43,NW,307,3.6,3.6,10,0.00,,---,0.00,VWS V14.01,2013-03-22 01:54:00,
2013-03-21 18:59:00,65.3,7.4,25.43,NW,310,2.2,3.1,10,0.00,,---,0.00,VWS V14.01,2013-03-22 01:59:00,
2013-03-21 19:04:00,65.1,7.2,25.43,NW,308,2.7,4.0,10,0.00,,---,0.00,VWS V14.01,2013-03-22 02:04:00,
2013-03-21 19:09:00,64.8,6.9,25.43,NW,304,4.0,4.0,10,0.00,,---,0.00,VWS V14.01,2013-03-22 02:09:00,
2013-03-21 19:14:00,64.8,6.9,25.43,NW,310,3.1,3.1,10,0.00,,---,0.00,VWS V14.01,2013-03-22 02:14:00,
2013-03-21 19:19:00,64.4,6.7,25.43,WNW,301,0.0,0.0,10,0.00,,---,0.00,VWS V14.01,2013-03-22 02:19:00,
2013-03-21 19:24:00,64.6,6.8,25.43,NW,314,3.6,5.4,10,0.00,,---,0.00,VWS V14.01,2013-03-22 02:24:00,
2013-03-21 19:29:00,64.6,6.8,25.43,NW,315,3.1,4.0,10,0.00,,---,0.00,VWS V14.01,2013-03-22 02:29:00,
2013-03-21 19:34:00,64.0,8.5,25.43,NNW,343,2.2,3.6,11,0.00,,---,0.00,VWS V14.01,2013-03-22 02:34:00,
2013-03-21 19:40:00,63.5,8.1,25.43,East,95,5.4,5.4,11,0.00,,---,0.00,VWS V14.01,2013-03-22 02:40:00,
2013-03-21 19:45:00,63.9,8.4,25.43,ESE,103,0.0,2.2,11,0.00,,---,0.00,VWS V14.01,2013-03-22 02:45:00,
2013-03-21 19:50:00,63.7,8.2,25.43,ESE,103,0.0,0.0,11,0.00,,---,0.00,VWS V14.01,2013-03-22 02:50:00,
2013-03-21 19:55:00,63.5,8.1,25.43,ESE,103,0.0,0.0,11,0.00,,---,0.00,VWS V14.01,2013-03-22 02:55:00,
2013-03-21 20:00:00,63.5,8.1,25.43,ESE,103,0.0,0.0,11,0.00,,---,0.00,VWS V14.01,2013-03-22 03:00:00,
2013-03-21 20:05:00,63.7,8.2,25.43,ENE,57,5.8,5.8,11,0.00,,---,0.00,VWS V14.01,2013-03-22 03:05:00,
2013-03-21 20:10:00,64.2,8.6,25.43,SSE,148,5.8,5.8,11,0.00,,---,0.00,VWS V14.01,2013-03-22 03:10:00,
2013-03-21 20:15:00,64.0,8.5,25.43,ESE,111,4.9,4.9,11,0.00,,---,0.00,VWS V14.01,2013-03-22 03:15:00,
2013-03-21 20:20:00,64.0,8.5,25.43,ESE,109,5.8,8.1,11,0.00,,---,0.00,VWS V14.01,2013-03-22 03:20:00,
2013-03-21 20:25:00,63.5,8.1,25.43,East,83,3.6,4.0,11,0.00,,---,0.00,VWS V14.01,2013-03-22 03:25:00,
2013-03-21 20:30:00,64.4,6.7,25.43,ENE,67,2.7,4.0,10,0.00,,---,0.00,VWS V14.01,2013-03-22 03:30:00,
2013-03-21 20:35:00,63.7,8.2,25.43,East,85,4.0,4.0,11,0.00,,---,0.00,VWS V14.01,2013-03-22 03:35:00,
2013-03-21 20:40:00,62.8,7.5,25.43,ENE,62,0.0,0.0,11,0.00,,---,0.00,VWS V14.01,2013-03-22 03:40:00,
2013-03-21 20:45:00,62.2,7.1,25.43,NW,313,0.0,2.2,11,0.00,,---,0.00,VWS V14.01,2013-03-22 03:45:00,
2013-03-21 20:50:00,61.7,6.7,25.43,NW,313,0.0,0.0,11,0.00,,---,0.00,VWS V14.01,2013-03-22 03:50:00,
2013-03-21 20:55:00,61.3,6.4,25.43,NW,313,0.0,0.0,11,0.00,,---,0.00,VWS V14.01,2013-03-22 03:55:00,
2013-03-21 21:00:00,61.3,6.4,25.43,NW,313,0.0,0.0,11,0.00,,---,0.00,VWS V14.01,2013-03-22 04:00:00,
2013-03-21 21:05:00,61.2,6.3,25.43,NW,313,0.0,2.2,11,0.00,,---,0.00,VWS V14.01,2013-03-22 04:05:00,
2013-03-21 21:10:00,61.3,6.4,25.43,ESE,108,0.0,0.0,11,0.00,,---,0.00,VWS V14.01,2013-03-22 04:10:00,
2013-03-21 21:15:00,61.7,6.7,25.43,SSE,147,5.4,6.3,11,0.00,,---,0.00,VWS V14.01,2013-03-22 04:15:00,
2013-03-21 21:20:00,61.9,6.8,25.43,SSE,166,0.0,0.0,11,0.00,,---,0.00,VWS V14.01,2013-03-22 04:20:00,
2013-03-21 21:25:00,61.9,6.8,25.43,SW,231,0.0,0.0,11,0.00,,---,0.00,VWS V14.01,2013-03-22 04:25:00,
2013-03-21 21:30:00,61.5,6.5,25.43,SW,230,0.0,0.0,11,0.00,,---,0.00,VWS V14.01,2013-03-22 04:30:00,
2013-03-21 21:35:00,61.2,6.3,25.43,SW,230,0.0,0.0,11,0.00,,---,0.00,VWS V14.01,2013-03-22 04:35:00,
2013-03-21 21:40:00,61.2,6.3,25.43,NNE,33,0.0,0.0,11,0.00,,---,0.00,VWS V14.01,2013-03-22 04:40:00,
2013-03-21 21:45:00,61.7,6.7,25.43,NNE,30,4.0,4.9,11,0.00,,---,0.00,VWS V14.01,2013-03-22 04:45:00,
2013-03-21 21:50:00,61.5,6.5,25.43,South,190,0.0,0.0,11,0.00,,---,0.00,VWS V14.01,2013-03-22 04:50:00,
2013-03-21 21:55:00,61.0,6.1,25.43,South,190,0.0,0.0,11,0.00,,---,0.00,VWS V14.01,2013-03-22 04:55:00,
2013-03-21 22:00:00,60.1,7.3,25.43,SSW,199,0.0,0.0,12,0.00,,---,0.00,VWS V14.01,2013-03-22 05:00:00,
2013-03-21 22:05:00,59.9,7.2,25.43,WNW,303,0.0,0.0,12,0.00,,---,0.00,VWS V14.01,2013-03-22 05:05:00,
2013-03-21 22:10:00,59.5,6.9,25.43,WNW,303,0.0,0.0,12,0.00,,---,0.00,VWS V14.01,2013-03-22 05:10:00,
2013-03-21 22:15:00,60.1,7.3,25.43,South,183,5.4,5.8,12,0.00,,---,0.00,VWS V14.01,2013-03-22 05:15:00,
2013-03-21 22:20:00,61.5,6.5,25.43,WNW,288,0.0,0.0,11,0.00,,---,0.00,VWS V14.01,2013-03-22 05:20:00,
2013-03-21 22:25:00,61.2,6.3,25.43,NW,323,3.6,3.6,11,0.00,,---,0.00,VWS V14.01,2013-03-22 05:25:00,
2013-03-21 22:30:00,59.9,7.2,25.43,NW,319,0.0,0.0,12,0.00,,---,0.00,VWS V14.01,2013-03-22 05:30:00,
2013-03-21 22:35:00,59.7,7.0,25.43,WNW,284,0.0,0.0,12,0.00,,---,0.00,VWS V14.01,2013-03-22 05:35:00,
2013-03-21 22:41:00,60.6,7.8,25.43,SE,141,0.0,2.2,12,0.00,,---,0.00,VWS V14.01,2013-03-22 05:41:00,
2013-03-21 22:46:00,60.4,7.6,25.43,West,270,0.0,0.0,12,0.00,,---,0.00,VWS V14.01,2013-03-22 05:46:00,
2013-03-21 22:51:00,59.5,6.9,25.43,West,270,0.0,0.0,12,0.00,,---,0.00,VWS V14.01,2013-03-22 05:51:00,
2013-03-21 22:56:00,59.9,7.2,25.43,NNE,21,0.0,0.0,12,0.00,,---,0.00,VWS V14.01,2013-03-22 05:56:00,
2013-03-21 23:01:00,59.7,7.0,25.43,ENE,57,0.0,0.0,12,0.00,,---,0.00,VWS V14.01,2013-03-22 06:01:00,
2013-03-21 23:06:00,59.9,7.2,25.43,East,96,4.9,6.3,12,0.00,,---,0.00,VWS V14.01,2013-03-22 06:06:00,
2013-03-21 23:11:00,59.9,7.2,25.43,ESE,108,0.0,2.7,12,0.00,,---,0.00,VWS V14.01,2013-03-22 06:11:00,
2013-03-21 23:16:00,59.9,7.2,25.43,East,82,4.5,5.4,12,0.00,,---,0.00,VWS V14.01,2013-03-22 06:16:00,
2013-03-21 23:21:00,61.0,6.1,25.43,WSW,253,0.0,3.1,11,0.00,,---,0.00,VWS V14.01,2013-03-22 06:21:00,
2013-03-21 23:26:00,62.2,7.1,25.43,SSW,193,2.2,8.3,11,0.00,,---,0.00,VWS V14.01,2013-03-22 06:26:00,
2013-03-21 23:31:00,60.8,6.0,25.43,NW,312,5.8,5.8,11,0.00,,---,0.00,VWS V14.01,2013-03-22 06:31:00,
2013-03-21 23:36:00,60.6,7.8,25.43,WNW,300,3.6,3.6,12,0.00,,---,0.00,VWS V14.01,2013-03-22 06:36:00,
2013-03-21 23:41:00,59.9,7.2,25.43,WSW,258,3.6,5.8,12,0.00,,---,0.00,VWS V14.01,2013-03-22 06:41:00,
2013-03-21 23:46:00,60.1,7.3,25.43,WSW,248,0.0,0.0,12,0.00,,---,0.00,VWS V14.01,2013-03-22 06:46:00,
2013-03-21 23:51:00,59.7,7.0,25.43,NNW,327,2.7,5.8,12,0.00,,---,0.00,VWS V14.01,2013-03-22 06:51:00,
2013-03-21 23:56:00,59.2,6.6,25.43,SSW,194,0.0,4.0,12,0.00,,---,0.00,VWS V14.01,2013-03-22 06:56:00,